Regional Weather Roundup
Issued by NWS San Angelo, TX

Home | Current Version | Previous Version | Text Only | Print | Product List | Glossary Off
Versions: 1 2 3 4 5 6 7 8 9 10 11 12 13 14 15 16 17 18 19 20 21 22 23 24 25 26 27 28 29 30 31 32 33 34 35 36 37 38 39 40 41 42 43 44 45 46 47 48 49 50

000
ASUS44 KSJT 050511
RWRSJT
WEST CENTRAL TEXAS REGIONAL WEATHER ROUNDUP
NATIONAL WEATHER SERVICE SAN ANGELO TX
1200 AM CDT SAT SEP 05 2015

NOTE: "FAIR" INDICATES FEW OR NO CLOUDS BELOW 12,000 FEET WITH NO
SIGNIFICANT WEATHER AND/OR OBSTRUCTIONS TO VISIBILITY.

TXZ049-054-064>066-071>073-076>078-098-099-113-114-127-128-139-140-
154-155-168>170-050600
...LOCATIONS ACROSS WEST CENTRAL TEXAS...

CITY           SKY/WX    TMP DP  RH WIND       PRES   REMARKS
SAN ANGELO     CLEAR     82  61  48 SE5       29.94R
ABILENE        CLEAR     82  65  56 SE10      29.96S
DYESS AFB      CLEAR     82  66  57 SE8       29.94S
JUNCTION       CLEAR     82  68  62 SE8       29.97R
SWEETWATER     CLEAR     79  61  53 SE5       30.00S
BROWNWOOD      PTCLDY    82  68  61 SE7       29.96R
COLEMAN        CLEAR     84  68  57 SE15      29.96S
SONORA         CLEAR     82  61  47 SE8       30.01S
OZONA          FAIR      81  59  47 S6        29.99F
BRADY          CLEAR     82  66  57 SE9       29.97S
$$

TEXAS PANHANDLE/OKLAHOMA PANHANDLE

CITY           SKY/WX    TMP DP  RH WIND       PRES   REMARKS
AMARILLO       PTCLDY    76  56  49 SE13      30.03R
BORGER         PTCLDY    81  57  43 S17G23    29.98S
CANADIAN       PTCLDY    80  63  56 S15G23    29.95S
DALHART        CLOUDY    76  55  48 SE7       30.03S
DUMAS          MOCLDY    77  56  47 S10       30.02S
GUYMON         NOT AVBL
HEREFORD       PTCLDY    75  58  54 S9        30.04S
PAMPA          CLEAR     78  59  52 S16       30.01F
PERRYTON       CLEAR     78  59  53 S13       29.97F
$$

SOUTHERN PANHANDLE/SOUTH PLAINS/ROLLING PLAINS

CITY           SKY/WX    TMP DP  RH WIND       PRES   REMARKS
LUBBOCK        PTCLDY    73  55  53 SE8       30.01S
SNYDER         CLEAR     80  60  51 E7        29.98S
CHILDRESS      CLEAR     81  62  52 SE10      29.95S
SEMINOLE       CLEAR     74  53  47 SE5       30.02S
$$

PERMIAN BASIN

CITY           SKY/WX    TMP DP  RH WIND       PRES   REMARKS
MIDLAND        CLEAR     78  54  43 SE5       29.98S
ODESSA         CLEAR     81  53  37 S7        29.99S
WINK           CLEAR     81  54  39 SE9       29.95S
$$

FAR WEST/SOUTHWEST MOUNTAINS/TRANS PECOS

CITY           SKY/WX    TMP DP  RH WIND       PRES   REMARKS
ALPINE         CLEAR     77  56  48 SE10      30.12S
DRYDEN           N/A     86  62  44 SE7       29.93S
EL PASO        MOCLDY    81  54  39 NW9       30.02R
FORT STOCKTON  CLEAR     81  57  43 SE12      29.98S
GUADALUPE PASS PTCLDY    75  49  39 NE25      30.13S
MARFA          CLEAR     70  52  52 NE5       30.10F
PECOS          CLEAR     79  51  37 E6        29.94F
$$

DALLAS/FORT WORTH METROPLEX

CITY           SKY/WX    TMP DP  RH WIND       PRES   REMARKS
DFW AIRPORT    PTCLDY    86  69  56 SE14      29.93S
FTW MEACHAM    CLEAR     87  69  54 SE14      29.92F
DAL-EXECUTIVE  CLEAR     84  70  62 SE7       29.93F
GRAND PRAIRIE  CLEAR     85  71  63 SE7       29.94F
ADDISON        CLEAR     85  72  63 SE8       29.95S
MESQUITE       CLEAR     82  69  64 SE7       29.94S
LANCASTER      CLEAR     83  68  60 SE6       29.95S
$$

NORTH CENTRAL TEXAS

CITY           SKY/WX    TMP DP  RH WIND       PRES   REMARKS
SHRMAN/DENISON PTCLDY    83  71  68 SE9       29.95F
GAINESVILLE    CLEAR     80  69  68 SE5       29.96S
BRIDGEPORT     CLEAR     79  69  70 SE6       29.95S
DENTON         CLEAR     83  70  64 SE8       29.93S
WAXAHACHIE     CLEAR     83  72  69 SE8       29.95F
GRANBURY       CLEAR     84  68  58 SE3       29.94S
$$

WESTERN NORTH TEXAS

CITY           SKY/WX    TMP DP  RH WIND       PRES   REMARKS
WICHITA FALLS  CLEAR     79  67  66 SE8       29.93S
VERNON         CLEAR     84  60  43 SE10      29.94S
BRECKENRIDGE   CLEAR     85  64  48 SE9       29.93S
COMANCHE       CLEAR     81  70  68 S8        29.96S
$$

CENTRAL AND SOUTH CENTRAL TEXAS

CITY           SKY/WX    TMP DP  RH WIND       PRES   REMARKS
AUSTIN/BERGSTM PTCLDY    78  72  81 S6        29.94F
WACO           CLEAR     83  70  64 SE10      29.93F
HILLSBORO      CLEAR     82  69  64 S8        29.95S
TEMPLE         PTCLDY    81  70  69 SE13      29.95S
KILLEEN-GRAY   CLEAR     79  72  78 S9        29.95S
FORT HOOD      CLEAR     80  72  76 SE8       29.93F
GEORGETOWN     CLEAR     82  70  65 S7        29.96S
LAGO VISTA     FAIR      80  72  75 S8        29.98S
SAN MARCOS     CLEAR     79  73  83 S7        29.96S
NEW BRAUNFELS  CLEAR     80  74  81 S7        29.94S
RANDOLPH AFB   CLEAR     78  74  86 SE7       29.95S
SAN ANTONIO    PTCLDY    81  73  76 SE13      29.96R
STINSON        CLEAR     81  74  79 SE12      29.93R
PLEASANTON     NOT AVBL
LA GRANGE      CLEAR     80  77  92 S3        29.93S
GIDDINGS       CLEAR     78  73  84 S3        29.99S
$$

EAST TEXAS

CITY           SKY/WX    TMP DP  RH WIND       PRES   REMARKS
PARIS          CLEAR     79  64  61 E7        29.96S
CLARKSVILLE    NOT AVBL
TYLER          CLEAR     82  71  69 S7        29.95F
LONGVIEW       CLEAR     80  73  79 S6        29.95S
PALESTINE      CLEAR     80  72  76 SE3       29.97S
NACOGDOCHES    CLEAR     79  73  83 SE3       29.96F
$$

TEXAS HILL COUNTRY AND EDWARDS PLATEAU

CITY           SKY/WX    TMP DP  RH WIND       PRES   REMARKS
LLANO          CLEAR     82  70  65 S6        29.99S
HORSESHOE BAY  FAIR      80  72  74 S7        29.95F
KERRVILLE      CLEAR     78  72  82 S5        29.99R
FREDERICKSBRG  CLEAR     77  69  76 S3        29.99S
ROCKSPRINGS    CLEAR     79  68  69 SE10      30.02S
HONDO          MOCLDY    81  74  79 SE10      29.96R
UVALDE         CLEAR     82  73  72 SE13      29.94R
DEL RIO        CLEAR     87  69  54 E14G20    29.88S
$$

SOUTHEAST TEXAS

CITY           SKY/WX    TMP DP  RH WIND       PRES   REMARKS
COLLEGE STN    CLEAR     80  74  81 S8        29.95S
CALDWELL       CLEAR     79  79 100 SE6       29.98S
CROCKETT       CLEAR     77  73  88 CALM      29.99S
BRENHAM        CLEAR     79  77  93 SE3       29.95S
HUNTSVILLE     CLEAR     80  74  81 S6        29.96S
CONROE         CLEAR     78  74  87 SE3       29.96F
HOUSTON BUSH   PTCLDY    78  75  90 S5        29.95S
HOUSTON HOBBY  PTCLDY    79  76  90 S5        29.95S
PERLAND        CLEAR     80  76  87 CALM      29.96F
WHARTON        CLEAR     77  75  95 E5        29.96R
$$

THE UPPER TEXAS COAST

CITY           SKY/WX    TMP DP  RH WIND       PRES   REMARKS
ORANGE         CLEAR    N/A N/A N/A CALM      29.98S
PORT ARTHUR    CLEAR     77  76  96 CALM      29.95F
GALVESTON      PTCLDY    84  78  82 S9        29.96F
ANGLETON       CLEAR     79  77  94 CALM      29.95S
BAY CITY       CLEAR     79  79  99 SE3       29.95R
$$

TEXAS COASTAL BEND, RIO GRANDE PLAINS DEEP SOUTH TEXAS

CITY           SKY/WX    TMP DP  RH WIND       PRES   REMARKS
VICTORIA       CLEAR     78  78 100 SE6       29.94S
BEEVILLE       FAIR      78  78  99 SE3       29.93S
ROCKPORT       PTCLDY    84  78  82 SE12      29.91F
PORT ARANSAS   MOCLDY    83  78  85 SE12      29.92S
PORT LAVACA    NOT AVBL
CORPUS CHRISTI PTCLDY    82  77  84 SE10      29.92S
KINGSVILLE NAS CLEAR     82  81  96 SE8       29.92S
COTULLA        CLEAR     82  75  79 SE15      29.91S
LAREDO         CLEAR     85  75  71 SE13      29.93R
BROWNSVILLE    PTCLDY    83  79  88 SE8       29.93R
PORT ISABEL    CLEAR     85  81  88 SE12      29.92S
HEBBRONVILLE   NOT AVBL
MCALLEN        CLEAR     82  77  84 SE8       29.92R
WESLACO        CLEAR     81  76  85 SE6       29.91S
FALFURRIAS     CLEAR     81  76  87 SE7       29.92S
EDINBURG       CLEAR     81  75  83 SE5       29.92S
$$


USA.gov is the U.S. government's official web portal to all federal, state and local government web resources and services.